Location: Nasgenstadt
(48.2786°N, 9.7553°E)
Time: 13:58:59
(UTC+02:00)

ISS - Pass Details

Date: 28 March 2017
Orbit: 400 x 409 km, 51.6° (Epoch: 23 April)

Event Time Altitude Azimuth Distance (km) Brightness Sun altitude
Rises 20:52:37 0° 213° (SSW) 2,304 0.2 -11.7°
Reaches altitude 10° 20:54:54 10° 199° (SSW) 1,451 -1.0 -12.0°
Maximum altitude 20:57:37 25° 142° (SE) 863 -2.7 -12.5°
Enters shadow 20:58:22 23° 119° (ESE) 920 -2.6 -12.6°
